Regional Weather Roundup
Issued by NWS

Home | Current Version | Previous Version | Graphics & Text | Print | Product List | Glossary On
Versions: 1 2 3 4 5 6 7 8 9 10 11 12 13 14 15 16 17 18 19 20 21 22 23 24 25 26 27 28 29 30 31 32 33 34 35 36 37 38 39 40 41 42 43 44 45 46 47 48 49 50
000
ASUS43 KIND 291059
RWRIN

WEATHER ROUNDUP FOR INDIANA
NATIONAL WEATHER SERVICE INDIANAPOLIS IN
700 AM EDT WED JUL 29 2015

NOTE: "FAIR" INDICATES FEW OR NO CLOUDS BELOW 12,000 FEET WITH NO
SIGNIFICANT WEATHER AND/OR OBSTRUCTIONS TO VISIBILITY.

* - STATION DOES NOT REPORT WEATHER SUCH AS PRECIPITATION OR FOG.

+ - STATION NOT QUALITY CONTROLLED BY THE NATIONAL WEATHER SERVICE.
    USE DATA WITH CAUTION...ESPECIALLY DEWPOINT AND RELATIVE
    HUMIDITY OBSERVATIONS.

INZ001>003-010>013-019-020-291200-
NORTHWEST INDIANA

CITY           SKY/WX    TMP DP  RH WIND       PRES   REMARKS
GARY /AIRPORT/ CLOUDY    75  73  94 W7        29.93S
RENSSELAER +   CLOUDY    73  73 100 SW3       29.95S

$$

LMZ046-743>745-291200-
SOUTHERN LAKE MICHIGAN

STATION/POSITION TIME  TEMP    WIND        PRES    WAVE
                       AIR SEA DIR/SP/G            HT
                 (UTC) (F)     (DEG/KT/KT) (MB)    (FT)
BURNS HARBOR     1000   77     230/  7/ 10 1013.9F
MICHIGAN CITY    1000   78     170/  8/ 10   N/A
5NW MICH CITY    1000   75 74  230/  8/ 10   N/A     1

$$

INZ004-005-014>016-021>024-291200-
NORTH CENTRAL INDIANA

CITY           SKY/WX    TMP DP  RH WIND       PRES   REMARKS
ELKHART        CLOUDY    73  68  83 CALM      29.96
GOSHEN         CLOUDY    73  69  87 CALM      29.96R
SOUTH BEND     CLOUDY    77  72  84 SW8       29.95R

$$

INZ006>009-017-018-025>027-291200-
NORTHEAST INDIANA

CITY           SKY/WX    TMP DP  RH WIND       PRES   REMARKS
ANGOLA *+      PTCLDY    72  63  73 CALM      29.97R
FORT WAYNE     MOCLDY    73  71  93 S3        29.97S FOG

$$

INZ028-029-035-036-043>045-051>053-291200-
WEST CENTRAL INDIANA

CITY           SKY/WX    TMP DP  RH WIND       PRES   REMARKS
CRAWFORDSVL +  MOCLDY    73  73 100 CALM        N/A
GREENCASTLE +  MOCLDY    73  70  88 NW7       30.00R FOG
LAFAYETTE      CLOUDY    74  71  91 W3        29.94F
TERRE HAUTE    HVY RAIN  75  72  90 N14G24    29.99R

$$

INZ030>032-037>040-046>048-054>057-064-065-291200-
CENTRAL INDIANA

CITY           SKY/WX    TMP DP  RH WIND       PRES   REMARKS
GREENWOOD *+   PTCLDY    73  70  88 CALM      29.99
INDIANAPOLIS   MOCLDY    76  73  91 SW6       29.97R
-EAGLE CREEK   MOCLDY    76  73  91 CALM      29.97S
KOKOMO *+      MOCLDY    72  70  94 S5        29.96S
MT COMFORT *+    N/A     72 N/A N/A CALM      29.99S VSB 3/4
SHELBYVILLE    FOG       74  72  93 CALM      29.97S VSB 1

$$

INZ033-034-041-042-049-050-058-059-291200-
EAST CENTRAL INDIANA

CITY           SKY/WX    TMP DP  RH WIND       PRES   REMARKS
MUNCIE         PTCLDY    74  71  91 S3        29.98S

$$

INZ060-061-067>069-081>083-085>088-291200-
SOUTHWEST INDIANA

CITY           SKY/WX    TMP DP  RH WIND       PRES   REMARKS
EVANSVILLE     PTCLDY    75  73  93 CALM      29.99S FOG
HUNTINGBURG *+ PTCLDY    73  70  88 CALM      30.00S

$$

INZ062-063-066-070>080-084-089>092-291200-
SOUTH CENTRAL AND SOUTHEAST INDIANA

CITY           SKY/WX    TMP DP  RH WIND       PRES   REMARKS
BLOOMINGTON    MOCLDY    74  73  97 CALM      29.99S
MADISON *+     PTCLDY    72  70  94 CALM      30.01S
SEYMOUR +      FOG       73  73 100 CALM      29.98  VSB 3/4

$$




USA.gov is the U.S. government's official web portal to all federal, state and local government web resources and services.